When you browse on this site, cookies collect data to enhance your experience and personalize the content and advertising you see.
Visit our Privacy Policy to learn more. By continuing to use the site, you agree to this use of cookies and data.
  • In Sweden
  • List of Countries
  • For 7 days
  • Water Temperature
  • Weather Map
  • Weather Widgets
  • user-avatar
    Login

    Hourly Weather Aguilar

    Today, 24 February, Monday

    Time Temperature Precipitation Wind Pressure Humidity
    00:00 +12°C° 0 mm 1 mps 743 mmHg 50%
    01:00 +12°C° 0 mm 1 mps 743 mmHg 51%
    02:00 +11°C° 0 mm 1 mps 742 mmHg 51%
    03:00 +11°C° 0 mm 1 mps 742 mmHg 51%
    04:00 +11°C° 0 mm 1 mps 742 mmHg 50%
    05:00 +10°C° 0 mm 1 mps 742 mmHg 49%
    06:00 +10°C° 0 mm 1 mps 742 mmHg 47%
    07:00 +12°C° 0 mm 1 mps 742 mmHg 45%
    08:00 +13°C° 0 mm 1 mps 742 mmHg 43%
    09:00 +15°C° 0 mm 1 mps 742 mmHg 40%
    10:00 +18°C° 0 mm 1 mps 742 mmHg 36%
    11:00 +20°C° 0 mm 1 mps 742 mmHg 32%
    12:00 +22°C° 0 mm 1 mps 742 mmHg 28%
    13:00 +23°C° 0 mm 1 mps 741 mmHg 28%
    14:00 +23°C° 0 mm 2 mps 741 mmHg 28%
    15:00 +24°C° 0 mm 2 mps 740 mmHg 28%
    16:00 +21°C° 0 mm 2 mps 740 mmHg 35%
    17:00 +19°C° 0 mm 2 mps 739 mmHg 41%
    18:00 +18°C° 0 mm 1 mps 739 mmHg 47%
    19:00 +16°C° 0 mm 1 mps 739 mmHg 50%
    20:00 +15°C° 0 mm 1 mps 739 mmHg 52%
    21:00 +13°C° 0 mm 1 mps 739 mmHg 55%
    22:00 +13°C° 0 mm 1 mps 739 mmHg 57%
    23:00 +12°C° 0 mm 1 mps 739 mmHg 60%

    Tomorrow, 25 February, Tuesday

    Time Temperature Precipitation Wind Pressure Humidity
    00:00 +12°C° 0 mm 1 mps 739 mmHg 62%
    01:00 +11°C° 0 mm 1 mps 739 mmHg 65%
    02:00 +10°C° 0 mm 0 mps 738 mmHg 67%
    03:00 +9°C° 0 mm 0 mps 738 mmHg 70%
    04:00 +9°C° 0 mm 0 mps 738 mmHg 72%
    05:00 +9°C° 0 mm 0 mps 738 mmHg 74%
    06:00 +8°C° 0 mm 0 mps 737 mmHg 76%
    07:00 +11°C° 0 mm 1 mps 738 mmHg 72%
    08:00 +12°C° 0 mm 1 mps 738 mmHg 68%
    09:00 +13°C° 0 mm 1 mps 738 mmHg 64%
    10:00 +15°C° 0 mm 2 mps 738 mmHg 59%
    11:00 +16°C° 0 mm 3 mps 738 mmHg 54%
    12:00 +18°C° 0 mm 3 mps 738 mmHg 49%
    13:00 +19°C° 0 mm 4 mps 738 mmHg 46%
    14:00 +19°C° 0 mm 4 mps 737 mmHg 42%
    15:00 +20°C° 0 mm 4 mps 737 mmHg 38%
    16:00 +18°C° 0 mm 4 mps 737 mmHg 43%
    17:00 +17°C° 0 mm 3 mps 737 mmHg 48%
    18:00 +15°C° 0 mm 2 mps 737 mmHg 53%
    19:00 +14°C° 0 mm 2 mps 737 mmHg 58%
    20:00 +13°C° 0 mm 2 mps 737 mmHg 62%
    21:00 +12°C° 0 mm 1 mps 738 mmHg 66%
    22:00 +12°C° 0 mm 1 mps 738 mmHg 71%
    23:00 +11°C° 0 mm 1 mps 738 mmHg 75%

    Day after tomorrow, 26 February, Wednesday

    Time Temperature Precipitation Wind Pressure Humidity
    00:00 +11°C° 0 mm 1 mps 738 mmHg 80%
    01:00 +10°C° 0 mm 1 mps 737 mmHg 83%
    02:00 +10°C° 0 mm 1 mps 737 mmHg 86%
    03:00 +10°C° 0 mm 1 mps 737 mmHg 89%
    04:00 +9°C° 0 mm 1 mps 737 mmHg 91%
    05:00 +9°C° 0 mm 1 mps 737 mmHg 92%
    06:00 +7°C° 0 mm 0 mps 736 mmHg 94%
    07:00 +8°C° 0 mm 0 mps 737 mmHg 91%
    08:00 +9°C° 0 mm 0 mps 737 mmHg 88%
    09:00 +11°C° 0 mm 0 mps 737 mmHg 85%
    10:00 +13°C° 0 mm 1 mps 738 mmHg 76%
    11:00 +14°C° 0 mm 1 mps 738 mmHg 66%
    12:00 +16°C° 0 mm 2 mps 738 mmHg 57%
    13:00 +17°C° 0 mm 2 mps 737 mmHg 52%
    14:00 +17°C° 0 mm 2 mps 737 mmHg 47%
    15:00 +18°C° 0 mm 2 mps 737 mmHg 42%
    16:00 +17°C° 0 mm 2 mps 736 mmHg 47%
    17:00 +16°C° 0 mm 1 mps 736 mmHg 51%
    18:00 +14°C° 0 mm 1 mps 736 mmHg 56%
    19:00 +13°C° 0 mm 1 mps 737 mmHg 59%
    20:00 +12°C° 0 mm 1 mps 737 mmHg 61%
    21:00 +10°C° 0 mm 0 mps 737 mmHg 64%
    22:00 +10°C° 0 mm 0 mps 737 mmHg 66%
    23:00 +9°C° 0 mm 0 mps 737 mmHg 68%

    27 February, Thursday

    Time Temperature Precipitation Wind Pressure Humidity
    00:00 +9°C° 0 mm 0 mps 737 mmHg 70%
    01:00 +8°C° 0 mm 0 mps 737 mmHg 72%
    02:00 +8°C° 0 mm 0 mps 737 mmHg 73%
    03:00 +7°C° 0 mm 0 mps 737 mmHg 74%
    04:00 +7°C° 0 mm 0 mps 737 mmHg 75%
    05:00 +7°C° 0 mm 0 mps 737 mmHg 76%
    06:00 +7°C° 0 mm 1 mps 737 mmHg 76%
    07:00 +9°C° 0 mm 1 mps 737 mmHg 70%
    08:00 +11°C° 0 mm 1 mps 738 mmHg 65%
    09:00 +12°C° 0 mm 1 mps 738 mmHg 59%
    10:00 +14°C° 0 mm 1 mps 738 mmHg 51%
    11:00 +16°C° 0 mm 1 mps 738 mmHg 43%
    12:00 +19°C° 0 mm 1 mps 738 mmHg 36%
    13:00 +20°C° 0 mm 1 mps 738 mmHg 34%
    14:00 +21°C° 0 mm 1 mps 737 mmHg 32%
    15:00 +22°C° 0 mm 1 mps 737 mmHg 30%
    16:00 +20°C° 0 mm 1 mps 737 mmHg 35%
    17:00 +18°C° 0 mm 1 mps 737 mmHg 40%
    18:00 +15°C° 0 mm 1 mps 736 mmHg 45%
    19:00 +14°C° 0 mm 1 mps 737 mmHg 47%
    20:00 +13°C° 0 mm 1 mps 737 mmHg 50%
    21:00 +12°C° 0 mm 1 mps 737 mmHg 52%
    22:00 +12°C° 0 mm 1 mps 737 mmHg 54%
    23:00 +11°C° 0 mm 1 mps 737 mmHg 56%

    28 February, Friday

    Time Temperature Precipitation Wind Pressure Humidity
    00:00 +11°C° 0 mm 1 mps 737 mmHg 58%
    01:00 +10°C° 0 mm 1 mps 736 mmHg 59%
    02:00 +10°C° 0 mm 1 mps 736 mmHg 60%
    03:00 +10°C° 0 mm 1 mps 736 mmHg 61%
    04:00 +9°C° 0 mm 1 mps 736 mmHg 62%
    05:00 +9°C° 0 mm 1 mps 736 mmHg 62%
    06:00 +9°C° 0 mm 1 mps 735 mmHg 62%
    07:00 +11°C° 0 mm 1 mps 736 mmHg 59%
    08:00 +12°C° 0 mm 1 mps 736 mmHg 56%
    09:00 +14°C° 0 mm 1 mps 736 mmHg 53%
    10:00 +16°C° 0 mm 1 mps 736 mmHg 48%
    11:00 +19°C° 0 mm 1 mps 736 mmHg 44%
    12:00 +20°C° 0 mm 2 mps 736 mmHg 40%
    13:00 +20°C° 0 mm 2 mps 736 mmHg 40%
    14:00 +20°C° 0 mm 3 mps 735 mmHg 39%
    15:00 +21°C° 0 mm 4 mps 735 mmHg 39%
    16:00 +19°C° 0 mm 3 mps 735 mmHg 45%
    17:00 +17°C° 0 mm 3 mps 735 mmHg 51%
    18:00 +16°C° 0 mm 2 mps 735 mmHg 57%
    19:00 +15°C° 0 mm 2 mps 735 mmHg 60%
    20:00 +14°C° 0 mm 2 mps 735 mmHg 62%
    21:00 +13°C° 0 mm 1 mps 735 mmHg 65%
    22:00 +12°C° 0 mm 1 mps 735 mmHg 68%
    23:00 +12°C° 0 mm 1 mps 736 mmHg 71%

    29 February, Saturday

    Time Temperature Precipitation Wind Pressure Humidity
    00:00 +11°C° 0 mm 1 mps 736 mmHg 75%
    01:00 +10°C° 0 mm 1 mps 736 mmHg 79%
    02:00 +10°C° 0 mm 1 mps 736 mmHg 83%
    03:00 +9°C° 0 mm 1 mps 736 mmHg 86%
    04:00 +9°C° 0 mm 1 mps 736 mmHg 87%
    05:00 +8°C° 0 mm 1 mps 736 mmHg 88%
    06:00 +8°C° 0 mm 1 mps 736 mmHg 89%
    07:00 +9°C° 0 mm 1 mps 736 mmHg 84%
    08:00 +10°C° 0 mm 1 mps 736 mmHg 79%
    09:00 +10°C° 0 mm 0 mps 737 mmHg 74%
    10:00 +13°C° 0 mm 1 mps 737 mmHg 67%
    11:00 +15°C° 0 mm 2 mps 737 mmHg 61%
    12:00 +16°C° 0 mm 2 mps 737 mmHg 54%
    13:00 +17°C° 0 mm 3 mps 736 mmHg 53%
    14:00 +18°C° 0 mm 3 mps 736 mmHg 52%
    15:00 +19°C° 0 mm 3 mps 735 mmHg 51%
    16:00 +18°C° 0 mm 3 mps 735 mmHg 58%
    17:00 +16°C° 0 mm 3 mps 735 mmHg 64%
    18:00 +15°C° 0 mm 2 mps 735 mmHg 71%
    19:00 +13°C° 0 mm 3 mps 735 mmHg 75%
    20:00 +13°C° 0 mm 3 mps 736 mmHg 78%
    21:00 +12°C° 0 mm 3 mps 736 mmHg 82%
    22:00 +12°C° 0 mm 2 mps 736 mmHg 86%
    23:00 +12°C° 0 mm 2 mps 736 mmHg 90%
    Show more